Regional Weather Roundup
Issued by NWS

Home | Current Version | Previous Version | Text Only | Print | Product List | Glossary On
Versions: 1 2 3 4 5 6 7 8 9 10 11 12 13 14 15 16 17 18 19 20 21 22 23 24 25 26 27 28 29 30 31 32 33 34 35 36 37 38 39 40 41 42 43 44 45 46 47 48 49 50
000
ASUS43 KDTX 260101
RWRMI
MICHIGAN HOURLY REGIONAL WEATHER ROUNDUP
NATIONAL WEATHER SERVICE DETROIT/PONTIAC MI
900 PM EDT MON SEP 25 2017

NOTE: "FAIR" INDICATES FEW OR NO CLOUDS BELOW 12,000 FEET WITH NO
SIGNIFICANT WEATHER AND/OR OBSTRUCTION TO VISIBILITY.

MIZ047>049-052>055-059>063-066>070-074>076-081>083-260200-
SOUTHEAST LOWER MICHIGAN

CITY           SKY/WX    TMP DP  RH WIND       PRES   REMARKS
ADRIAN         CLEAR     76  62  62 CALM      30.00R
ALMA           PTCLDY    69  57  63 CALM      29.98R
ANN ARBOR      CLEAR     72  64  76 CALM      29.99R
BAD AXE        MOCLDY    74  63  68 CALM      29.99S
CARO           CLEAR     71  65  81 CALM      29.97S
DETROIT CITY   MOCLDY    78  66  66 S5        29.99R
DETROIT        MOCLDY    78  64  61 SE3       29.99R
FLINT          PTCLDY    77  64  64 S5        29.98R
GROSSE ILE     PTCLDY    76  66  70 SE3       29.98R
HILLSDALE      MOCLDY    70  61  73 CALM      30.00R
HOWELL         CLEAR     77  61  56 S5        29.99R

CITY           SKY/WX    TMP DP  RH WIND       PRES   REMARKS
JACKSON        CLEAR     75  60  59 CALM      29.99R
LAMBERTVILLE   PTCLDY    72  66  82 CALM      29.98S
LANSING        PTCLDY    76  61  59 CALM      29.98R
LAPEER         FAIR      73  64  74 CALM      29.99S
MASON          CLEAR     73  64  73 CALM      29.99R
MONROE         PTCLDY    74  66  74 CALM      29.98R
MT. CLEMENS    MOCLDY    75  67  76 S6        29.97R
PONTIAC        PTCLDY    78  64  61 SE5       29.99R
PORT HOPE        N/A     73  66  78 SE3       29.97S
PORT HURON     PTCLDY    70  66  88 CALM      29.99S
TRI CITIES     CLEAR     74  67  78 CALM      29.98R
MIDLAND        FAIR      71  66  83 CALM      29.97S
TROY           PTCLDY    81  64  57 SE3       30.01R
SAGINAW HB     CLEAR     73  64  73 CALM      29.97S
$$
MIZ043>046-050>051-056>058-064>065-071>073-077>080-260200-
SOUTHWEST LOWER MICHIGAN

CITY           SKY/WX    TMP DP  RH WIND       PRES   REMARKS
BATTLE CREEK   CLEAR     75  59  57 S3        29.99R
BENTON HARBOR  PTCLDY    71  62  73 CALM      29.96R
BIG RAPIDS     CLEAR     71  57  61 CALM      29.98S
COLDWATER      CLEAR     71  61  70 CALM      29.99R
FREMONT        FAIR      70  56  61 SE3       29.96F
HOLLAND        PTCLDY    70  60  70 CALM      29.97S
GRAND RAPIDS   MOCLDY    76  60  57 CALM      29.97S
IONIA          FAIR      72  56  57 CALM      29.97S
KALAMAZOO      CLEAR     74  55  51 CALM      29.98R
LUDINGTON      CLEAR     62  60  90 CALM      29.94F
MARSHALL       CLEAR     72  60  66 CALM      29.98R
MOUNT PLEASANT PTCLDY    71  61  71 CALM      29.98R
MUSKEGON       PTCLDY    73  59  61 CALM      29.96S
SOUTH HAVEN    PTCLDY    71  64  80 CALM      29.97R
$$
MIZ016>042-260200-
NORTHERN LOWER MICHIGAN

CITY           SKY/WX    TMP DP  RH WIND       PRES   REMARKS
ALPENA         CLEAR     72  67  84 CALM      29.99R
BEAVER ISLAND  CLEAR     65  64  97 CALM      29.95S
BELLAIRE       PTCLDY    68  63  86 CALM      29.96R
CADILLAC       CLEAR     77  52  41 CALM      29.99S
CHARLEVOIX     CLEAR     69  63  83 CALM      29.98S
FRANKFORT      CLEAR     69  62  79 CALM      29.95S
GAYLORD        CLEAR     72  57  59 CALM      30.00R
GRAYLING       CLEAR     66  56  68 CALM      30.00S
HARBOR SPRINGS CLEAR     69  64  82 NE3       29.96S
HOUGHTON LAKE  PTCLDY    69  61  75 CALM      30.00R
MANISTEE       CLEAR     67  61  81 CALM      29.95R
OSCODA         PTCLDY    73  65  77 S7        29.98S
PELLSTON       CLEAR     67  62  84 CALM      29.97S
ROGERS CITY    PTCLDY    76  66  73 S5        29.98S
TRAVERSE CITY  PTCLDY    73  63  70 CALM      29.94S
$$
MIZ007>008-015-260200-
EASTERN UPPER MICHIGAN

CITY           SKY/WX    TMP DP  RH WIND       PRES   REMARKS
KINROSS        CLEAR     69  63  81 SE8       29.97S
MACKINAC ISLAN CLEAR     76  58  54 E8        29.96F
NEWBERRY       CLEAR     66  65  97 CALM      29.96S
S. S. MARIE    CLEAR     72  65  78 E5        29.96S
MUNISING         N/A     65  65 100 NE3       29.95F
$$
MIZ004>006-011>014-085-260200-
CENTRAL UPPER MICHIGAN

CITY           SKY/WX    TMP DP  RH WIND       PRES   REMARKS
MANISTIQUE     CLEAR     65  59  81 CALM      29.95R
MENOMINEE      CLEAR     71  63  75 SW3       29.93R
$$
MIZ001>003-009>011-084-260200-
WESTERN UPPER MICHIGAN

CITY           SKY/WX    TMP DP  RH WIND       PRES   REMARKS
IRON MOUNTAIN  CLEAR     74  63  68 E5        29.92R
HOUGHTON       CLOUDY    60  53  77 E6        29.99R
COPPER HARBOR    N/A     59  54  83 NE18      29.98S
IRONWOOD       CLOUDY    57  56  96 NW3       30.01S
$$

ABBREVIATIONS USED IN REMARKS
   TC - TEMPERATURE IN CELSIUS
  WCI - WIND CHILL INDEX
   HX - HEAT INDEX
  VSB - VISIBILITY




USA.gov is the U.S. government's official web portal to all federal, state and local government web resources and services.